TURKSAT 3A

Last updated on Tue Oct 08 2024 00:02:38 GMT+0000 (Coordinated Universal Time)

1 33056U 08030B 24281.21021626 .00000157 00000+0 00000+0 0 9996 2 33056 0.0476 110.5608 0004625 64.2753 319.2112 1.00270212 46162
UTC large
Height (km)
Speed (km/s)
/
Latitude / Longitude
Inclination (degrees)
Orbital Period (minutes)
Azimuth
Elevation
Range (km)
Doppler Factor

Next 0 passes for location: London (51.5072 / 0.1276)

Sorry there are no passes over London.